www.pogodaiklimat.ru

Погода и климат >> Архив погоды >> Индонезия >> Аэропорт Ханга Надима


ПОГОДА в Аэропорту Ханга Надима

  • Прогноз погоды в Аэропорту Ханга Надима
  • Монитор погоды в Аэропорту Ханга Надима

АРХИВ ПОГОДЫ в Аэропорту Ханга Надима

Время (UTC), дата Ветер
(напр.,м/с)
 
Видим.   Явления Облачность Т
(С)
Тd
(С)
f
(%)
Тe
(С)
Тes
(С)
Комфортность P
(гПа)
Po
(гПа)
Тmin
(С)
Tmax
(С)
R
(мм)
R24
(мм)
S
(см)
00 11.06 Ю 2 10 км 8/3 420 м
[Cu med, cong Ac trans Cc]
+27.0 +26.0 94 +40 +41 очень
душно
1011.9 1007.4 +25.8
03 11.06 ЮВ 4 10 км 6/4 420 м
[Cu hum Ac trans Ci fib]
+31.8 +25.4 69 +46 +51 опасность
перегрева
1012.8 1008.3
06 11.06 ЮВ 5 10 км осадки на расстоянии 8/4 420 м
[Cu med, cong Ac cuf Ci fib]
+32.0 +25.4 68 +46 +50 опасность
перегрева
1011.4 1006.9
09 11.06 ЮВ 4 10 км 9/4 420 м
[Cu hum Ac cuf Ci fib]
+31.4 +24.9 68 +45 +46 опасность
перегрева
1009.2 1004.7
12 11.06 Ю 2 10 км 8/3 420 м
[Sc Ac trans Ci fib]
+28.7 +26.1 86 +43 +43 опасность
перегрева
1011.3 1006.8 +32.8
15 11.06 Ю 3 9000 м слаб. ливневой дождь, в посл. час гроза 8/5 420 м
[Cb calv As trans Ci fib]
+25.4 +23.8 91 +35 +35 очень
душно
1013.9 1009.4 0.0
18 11.06 штиль 0 9000 м в посл. час дождь 8/4 420 м
[Sc As trans Ci fib]
+25.4 +24.1 93 +35 +35 очень
душно
1012.9 1008.4 0.0
21 11.06 штиль 0 8000 м слаб. дождь 8/4 420 м
[Sc As trans Ci fib]
+24.7 +23.7 94 +34 +34 очень
душно
1012.2 1007.7 0.0
00 12.06 Ю 2 9000 м {дождь} 10/3 420 м
[Sc Ac As Cs]
+25.3 +24.7 96 +36 +36 очень
душно
1013.4 1008.9 +24.0 9
03 12.06 Ю 5 10 км 9/4 420 м
[Sc Ac As Cs]
+28.3 +25.6 85 +42 +45 опасность
перегрева
1013.7 1009.2
06 12.06 ЮЗ 6 10 км 9/8 360 м
[Sc As trans Cs]
+28.6 +25.4 83 +42 +43 опасность
перегрева
1011.8 1007.3
09 12.06 Ю 5 10 км 9/5 360 м
[Sc As trans Cs]
+28.2 +23.9 78 +39 +40 очень
душно
1011.0 1006.5
12 12.06 штиль 0 10 км 8/3 420 м
[Sc Ac trans Cs]
+27.2 +24.6 86 +39 +39 очень
душно
1011.6 1007.1 +32.3
15 12.06 штиль 0 10 км 10/3 420 м
[Sc Ac As Cs]
+27.3 +25.5 90 +40 +40 очень
душно
1012.8 1008.3
18 12.06 штиль 0 10 км 10/3 420 м
[Sc Ac As Cs]
+27.0 +25.0 89 +39 +39 очень
душно
1011.9 1007.4
21 12.06 штиль 0 10 км 10/3 420 м
[Sc Ac As Cs]
+26.7 +25.1 91 +38 +38 очень
душно
1011.0 1006.5
00 13.06 штиль 0 10 км 8/3 420 м
[Cu hum Ac As Cs]
+27.2 +25.2 89 +39 +40 очень
душно
1011.9 1007.4 +25.1
03 13.06 ЮВ 3 10 км 9/1 420 м
[Cu hum Ac As Cs]
+30.0 +24.6 73 +43 +49 опасность
перегрева
1013.0 1008.5
06 13.06 ЮВ 4 10 км 9/5 420 м
[Sc Ac As Cs]
+30.2 +24.7 72 +43 +47 опасность
перегрева
1011.6 1007.1
09 13.06 ЮВ 1 10 км слаб. дождь 10/4 400 м
[Sc As trans Cs]
+26.7 +26.0 96 +40 +42 очень
душно
1010.6 1006.1 7
12 13.06 ЮВ 2 10 км {дождь} 9/3 420 м
[Sc As trans Cs]
+28.0 +25.3 85 +41 +41 опасность
перегрева
1011.9 1007.4 +32.8 0.0
15 13.06 ЮВ 3 9000 м слаб. дождь 9/4 420 м
[Sc As trans Cs]
+27.4 +26.0 92 +41 +41 опасность
перегрева
1014.0 1009.5 0.0
18 13.06 штиль 0 10 км {дождь} 9/3 420 м
[Sc As trans Cs]
+26.9 +25.6 93 +40 +40 очень
душно
1012.2 1007.7 0.0
21 13.06 штиль 0 10 км 9/3 420 м
[Sc As trans Cs]
+26.3 +26.2 99 +39 +39 очень
душно
1011.0 1006.5
00 14.06 штиль 0 10 км 9/1 420 м
[Sc Ac As Cs]
+26.6 +25.9 96 +40 +40 очень
душно
1011.6 1007.1 +25.0 7
03 14.06 Ю 3 10 км 8/3 400 м
[Cu hum Ac As Ci fib]
+30.2 +25.1 74 +44 +49 опасность
перегрева
1012.4 1007.9
06 14.06 Ю 2 10 км 8/4 420 м
[Cu hum Ac As Ci fib]
+32.0 +24.2 63 +44 +51 опасность
перегрева
1010.6 1006.1
09 14.06 ЮВ 3 10 км 8/4 420 м
[Cu hum Ac As Ci fib]
+31.0 +25.1 71 +45 +46 опасность
перегрева
1009.3 1004.8
12 14.06 Ю 2 10 км 8/3 420 м
[Sc Ac As Ci fib]
+27.8 +25.3 86 +40 +40 очень
душно
1010.8 1006.3 +32.8
15 14.06 штиль 0 10 км 8/3 420 м
[Sc Ac trans Ci fib]
+27.1 +24.5 86 +38 +38 очень
душно
1013.6 1009.1
18 14.06 штиль 0 10 км 8/4 420 м
[Sc Ac trans Ci fib]
+26.8 +24.7 88 +38 +38 очень
душно
1012.2 1007.7
21 14.06 штиль 0 10 км 9/3 420 м
[Sc Ac trans Ci fib]
+26.4 +25.0 92 +38 +38 очень
душно
1011.1 1006.6
00 15.06 штиль 0 10 км 8/3 420 м
[Sc Ac trans Ci fib]
+26.9 +25.9 94 +40 +41 очень
душно
1012.8 1008.3 +25.0
03 15.06 Ю 2 10 км 8/4 420 м
[Cu hum Ac trans Ci fib]
+31.5 +25.2 69 +45 +51 опасность
перегрева
1013.4 1008.9
06 15.06 Ю 2 10 км {дождь} 8/4 420 м
[Sc Ac trans Ci fib]
+29.0 +24.5 77 +41 +49 опасность
перегрева
1011.9 1007.4 0.0
09 15.06 Ю 3 10 км {дождь} 9/4 420 м
[Sc diur, vesp Ac As Ci fib]
+27.2 +24.9 87 +39 +40 очень
душно
1010.3 1005.8 0.0
12 15.06 штиль 0 10 км {дождь} 9/3 420 м
[Sc Ac As Ci fib]
+26.8 +24.2 86 +37 +37 очень
душно
1011.3 1006.8 +31.6 0.0
15 15.06 штиль 0 10 км 8/3 420 м
[Sc Ac As Ci fib]
+26.3 +25.0 93 +38 +38 очень
душно
1013.0 1008.5
18 15.06 штиль 0 9000 м 8/3 420 м
[Sc Ac As Ci fib]
+25.4 +25.3 99 +37 +37 очень
душно
1012.5 1008.0
21 15.06 штиль 0 10 км 8/3 420 м
[Sc Ac As Ci fib]
+25.5 +25.2 98 +37 +37 очень
душно
1011.1 1006.6
00 16.06 Ю 3 10 км 10/3 420 м
[Cu med, cong Ac trans Cs]
+27.0 +25.6 92 +40 +40 очень
душно
1012.3 1007.8 +25.4 0.0
03 16.06 Ю 5 10 км 9/4 420 м
[Sc Ac trans Cs]
+31.0 +25.1 71 +45 +47 опасность
перегрева
1013.3 1008.8
06 16.06 Ю 5 10 км 9/5 420 м
[Sc Ac trans Cs]
+31.7 +24.7 67 +45 +48 опасность
перегрева
1011.9 1007.4
09 16.06 Ю 4 10 км 9/5 420 м
[Sc As trans Cs]
+30.2 +26.0 78 +45 +46 опасность
перегрева
1010.1 1005.6
12 16.06 штиль 0 10 км 9/4 420 м
[Sc As trans Cs]
+28.0 +26.2 90 +42 +42 опасность
перегрева
1011.4 1006.9 +32.5
15 16.06 штиль 0 10 км 9/4 420 м
[Sc As trans Cs]
+27.5 +25.7 90 +41 +41 опасность
перегрева
1012.8 1008.3
18 16.06 штиль 0 10 км 9/4 420 м
[Sc As trans Cs]
+27.4 +25.6 90 +40 +40 очень
душно
1012.0 1007.5
21 16.06 штиль 0 10 км 9/3 420 м
[Sc As trans Cs]
+26.3 +25.0 93 +38 +38 очень
душно
1011.2 1006.7
00 17.06 ЮВ 2 10 км 9/5 420 м
[Cu hum As trans Cs]
+27.0 +25.9 94 +40 +41 очень
душно
1012.5 1008.0 +25.8
03 17.06 ЮВ 8 10 км 9/5 420 м
[Cu hum As trans Cs]
+29.4 +25.3 79 +43 +44 опасность
перегрева
1012.9 1008.4
06 17.06 ЮВ 5 10 км 9/5 420 м
[Cu hum As trans Cs]
+31.9 +25.9 71 +47 +51 опасность
перегрева
1011.1 1006.6
09 17.06 ЮВ 4 10 км в посл. час дождь 9/4 420 м
[Cu hum As trans Cs]
+28.9 +25.4 81 +42 +44 опасность
перегрева
1010.0 1005.5 4
12 17.06 штиль 0 10 км в посл. час дождь 9/3 420 м
[Sc Ac trans Cs]
+28.1 +25.4 85 +41 +41 опасность
перегрева
1011.8 1007.3 +32.3 0.0
15 17.06 штиль 0 10 км 10/3 420 м
[Sc Ac As Cs]
+27.3 +25.5 90 +40 +40 очень
душно
1013.3 1008.8
18 17.06 штиль 0 9000 м слаб. дождь {гроза} 10/4 400 м
[Cu med, cong Ac As Cs]
+26.0 +25.1 95 +37 +37 очень
душно
1012.7 1008.2 6
21 17.06 штиль 0 9000 м зарница {дождь} 10/4 400 м
[Cu med, cong Ac As Cs]
+25.6 +24.9 96 +36 +36 очень
душно
1011.5 1007.0 5

 

Местоположение метеостанции Аэропорт Ханга Надима (Индонезия): широта 1.12 долгота 104.11 высота над уровнем моря 24 м.

В архиве по умолчанию представлена погода в Аэропорту Ханга Надима за последнюю неделю. Архивные данные за месяц целиком и за предыдущие месяцы, начиная с января 2011 года, Вы можете получить, выбрав интересующий диапазон дат из раскрывающегося списка и нажав кнопку "Ввод!".


*Определитесь, кто Вы:
робот инопланетянин человек

Внимание! Время в таблицах - всемирное. Для получения местного времени необходимо прибавить поправку, которая равна 7 ч.

Смотрите также архив погоды в соседних городах и на ближайших метеорологических станциях:

Погода в Сингапуре (Сингапур) (31 км)
Погода в Танджунгпинанге (Индонезия) (52 км)
Погода в Аэропорту Сеная (Малайзия) (75 км)
Погода в Аэропорту Дабо (Индонезия) (185 км)
Погода в Малакке (Малайзия) (243 км)
Погода в Аэропорту Япура (Индонезия) (257 км)
Погода в Пеканбару (Индонезия) (305 км)
Погода в Джамби (Индонезия) (310 км)
Погода в Куантане (Малайзия) (312 км)
Погода в Куала-Лумпур аэропорту (Малайзия) (322 км)

Пояснения к столбцам:

Ветер - указаны скорость ветра в м/с - средняя за 10 мин, порывы в срок и между сроками (в фигурных скобках) и направление, откуда дует ветер: С - северный, СВ - северо-восточный, В - восточный, ЮВ - юго-восточный, Ю - южный, ЮЗ - юго-западный, З - западный, СЗ - северо-западный.
Видимость - горизонтальная дальность видимости в метрах или километрах. При видимости от 1 до 10 км при отсутствии осадков обычно наблюдается дымка, при ухудшении видимости до 1 км и менее - туман. В сухую погоду видимость может ухудшаться дымом, пылью или мглою.
Явления - указаны атмосферные явления, наблюдавшиеся в срок или в последний час перед сроком; фигурными скобками обозначены явления, наблюдавшиеся между сроками (за 1-3 часа до срока); квадратными скобками обозначены град или гололедные отложения с указанием их диаметра в мм.
Облачность - указаны через наклонную черту общая и нижняя облачность в баллах и высота нижней границы облаков в метрах; квадратными скобками обозначены формы облаков: Ci - перистые, Cs - перисто-слоистые, Cc - перисто-кучевые, Ac - высококучевые, As - высокослоистые, Sc - слоисто-кучевые, Ns - слоисто-дождевые, Cu - кучевые, Cb - кучево-дождевые. Подробнее классификацию облаков см. в Атласе облаков (PDF).
T - Температура воздуха - температура, измеренная на высоте 2 м над землей.
Td - Температура точки росы - температура, при понижении до которой содержащийся в воздухе водяной пар достигнет насыщения.
f - Относительная влажность воздуха - влажноcть воздуха, измеренная на высоте 2 м над землей.
Te - Эффективная температура - температура, которую ощущает одетый по сезону человек в тени. Характеристика душности погоды. При расчете учитывается влияние влажности воздуха и скорости ветра на теплоощущения человека.
Tes - Эффективная температура на солнце - температура, которую ощущает человек, с поправкой на солнечный нагрев. Характеристика знойности погоды. Зависит от высоты солнца над горизонтом, облачности и скорости ветра. Ночью, в пасмурную погоду, а также при ветре 12 м/с и более поправка равна нулю.
P - Атмосферное давление - приведенное к уровню моря атмосферное давление.
Po - Атмосферное давление - измеренное на уровне метеостанции атмосферное давление.
Tmin - Минимальная температура - минимум температуры воздуха на высоте 2 м над землей.
Tmax - Максимальная температура - максимум температуры воздуха на высоте 2 м над землей.
R - Количество осадков - Количество выпавших осадков за период времени, мм. При наведении курсора мыши на число - период времени, за который выпало указанное количество осадков.
R24 - Количество осадков - Количество выпавших осадков за 24 часа, мм.
S - Снежный покров - Высота снежного покрова, см. При наведении курсора мыши на число - состояние снежного покрова и степень покрытия местности в баллах.